Regional Weather Roundup
Issued by NWS

Home | Current Version | Previous Version | Text Only | Print | Product List | Glossary Off
Versions: 1 2 3 4 5 6 7 8 9 10 11 12 13 14 15 16 17 18 19 20 21 22 23 24 25 26 27 28 29 30 31 32 33 34 35 36 37 38 39 40 41 42 43 44 45 46 47 48 49 50

000
ASUS43 KOAX 042110
RWRNE

WEATHER ROUNDUP FOR NEBRASKA
NATIONAL WEATHER SERVICE OMAHA NE
400 PM CDT TUE AUG 04 2015

NOTES: SATELLITE DATA IS BEING USED TO AUGMENT CLOUD COVER ABOVE
       12000 FEET.
       "FAIR" INDICATES FEW OR NO CLOUDS BELOW 12,000 FEET WITH NO
       SIGNIFICANT WEATHER AND/OR OBSTRUCTIONS TO VISIBILITY.

  * THESE STATIONS DO NOT REPORT WEATHER SUCH AS RAIN...SNOW OR FOG.

NEZ001>004-019>022-054>056-042200-
NEBRASKA PANHANDLE

CITY           SKY/WX    TMP DP  RH WIND       PRES   REMARKS
SCOTTSBLUFF    CLOUDY    74  63  68 E16       29.99S
ALLIANCE       CLOUDY    72  63  73 SE21      30.02S
CHADRON        PTSUNNY   80  61  52 SE17      29.96S
KIMBALL        CLOUDY    75  51  42 NW8       30.04S
SIDNEY         CLOUDY    70  61  73 E7        30.05F
$$

NEZ057>060-069>072-079>082-042200-
SOUTHWEST NEBRASKA

CITY           SKY/WX    TMP DP  RH WIND       PRES   REMARKS
NORTH PLATTE   LGT RAIN  67  64  90 E13       29.96F
IMPERIAL       CLOUDY    67  60  78 NE5       29.99R
LEXINGTON      TSTM      69  64  86 SW17G28   29.95F
MCCOOK         TSTM      62  62 100 CALM      29.99
OGALLALA       CLOUDY    68  63  82 S5        30.00S
$$

NEZ005>010-023>029-035>040-094-042200-
NORTH CENTRAL NEBRASKA

CITY           SKY/WX    TMP DP  RH WIND       PRES   REMARKS
AINSWORTH      CLOUDY    78  66  66 E12       29.97F
BROKEN BOW     CLOUDY    75  62  64 S7        29.96F
O`NEILL        PTSUNNY   78  65  63 E9        29.98S
ORD            CLOUDY    81  63  54 SE9       29.92R
THEDFORD       CLOUDY    73  61  67 S17G24    29.96S
$$

NEZ041-046>049-061>064-073>077-083>087-042200-
SOUTH CENTRAL NEBRASKA

CITY           SKY/WX    TMP DP  RH WIND       PRES   REMARKS
GRAND ISLAND   CLOUDY    81  67  62 S10G20    29.93S
AURORA         PTSUNNY   80  67  66 SE13      29.92S
HASTINGS       CLOUDY    83  70  64 SE12      29.93S
HEBRON         MOSUNNY   83  68  60 SE9       29.91F
HOLDREGE       CLOUDY    78  67  70 SE13      29.95R
KEARNEY *      CLOUDY    81  70  69 SE13      29.94S
YORK           PTSUNNY   81  68  65 SE15G23   29.91F
$$

NEZ011>018-030>034-042>045-042200-
NORTHEAST NEBRASKA

CITY           SKY/WX    TMP DP  RH WIND       PRES   REMARKS
NORFOLK        PTSUNNY   75  64  68 E7        29.97S
ALBION         PTSUNNY   74  66  76 NE13      29.95F
BLAIR          CLOUDY    72  64  73 N7        29.95S
COLUMBUS *     PTSUNNY   72  63  73 NE8G16    29.94S
FREMONT        CLOUDY    73  65  74 NE10      29.95F
TEKAMAH        PTSUNNY   76  64  66 SE9       29.96F
WAYNE          MOSUNNY   78  65  63 SE7       29.98F
$$

NEZ050>053-065>068-078-088>093-042200-
SOUTHEAST NEBRASKA

CITY           SKY/WX    TMP DP  RH WIND       PRES   REMARKS
LINCOLN        MOSUNNY   87  69  54 S18       29.91F HX  91
OMAHA EPPLEY   CLOUDY    75  67  76 N9        29.93F
BEATRICE       PTSUNNY   82  69  65 E13       29.91F
FALLS CITY     PTSUNNY   81  72  74 SE12      29.92F
NEBRASKA CITY  MOSUNNY   82  66  58 S14       29.92F
PLATTSMOUTH    PTSUNNY   81  69  65 S10G16    29.91F
$$

NEZ044-045-051>053-067-042200-
OMAHA AREA

CITY           SKY/WX    TMP DP  RH WIND       PRES   REMARKS
OMAHA EPPLEY   CLOUDY    75  67  76 N9        29.93F
BLAIR          CLOUDY    72  64  73 N7        29.95S
FREMONT        CLOUDY    73  65  74 NE10      29.95F
MILLARD        PTSUNNY   80  69  69 SE7       29.92R
OFFUTT AFB     PTSUNNY   82  70  67 VRB5      29.91S
PLATTSMOUTH    PTSUNNY   81  69  65 S10G16    29.91F
WAHOO          CLOUDY    78  69  75 NE10G16   29.94R
$$



USA.gov is the U.S. government's official web portal to all federal, state and local government web resources and services.